TimeCST,TemperatureF,Dew PointF,Humidity,Sea Level PressureIn,VisibilityMPH,Wind Direction,Wind SpeedMPH,Gust SpeedMPH,PrecipitationIn,Events,Conditions,WindDirDegrees,DateUTC
12:15 AM,21.2,19.4,93,29.96,3.0,ESE,15.0,-,N/A,,Overcast,110,2013-02-21 06:15:00
12:35 AM,21.2,17.6,86,29.93,5.0,East,20.7,-,N/A,,Overcast,100,2013-02-21 06:35:00
1:15 AM,21.2,17.6,86,29.91,6.0,East,13.8,-,N/A,,Overcast,90,2013-02-21 07:15:00
1:35 AM,19.4,17.6,93,29.91,6.0,East,16.1,-,N/A,,Overcast,90,2013-02-21 07:35:00
1:55 AM,19.4,17.6,93,29.88,3.0,East,18.4,-,N/A,,Overcast,90,2013-02-21 07:55:00
2:15 AM,19.4,17.6,93,29.89,3.0,East,17.3,-,N/A,,Overcast,90,2013-02-21 08:15:00
2:35 AM,19.4,17.6,93,29.88,5.0,East,20.7,-,N/A,,Overcast,90,2013-02-21 08:35:00
2:55 AM,19.4,17.6,93,29.87,2.5,East,19.6,24.2,N/A,,Overcast,90,2013-02-21 08:55:00
3:15 AM,19.4,15.8,86,29.84,2.5,East,19.6,-,N/A,,Overcast,80,2013-02-21 09:15:00
3:35 AM,19.4,15.8,86,29.84,2.5,ENE,17.3,-,N/A,,Overcast,70,2013-02-21 09:35:00
3:55 AM,19.4,15.8,86,29.86,2.5,ENE,13.8,-,N/A,,Overcast,70,2013-02-21 09:55:00
4:15 AM,19.4,15.8,86,29.86,1.8,ENE,11.5,-,N/A,,Overcast,60,2013-02-21 10:15:00
4:35 AM,19.4,15.8,86,29.84,1.5,ENE,15.0,-,N/A,,Overcast,60,2013-02-21 10:35:00
4:55 AM,19.4,15.8,86,29.84,1.8,ENE,13.8,-,N/A,,Overcast,60,2013-02-21 10:55:00
5:15 AM,19.4,15.8,86,29.84,3.0,ENE,13.8,-,N/A,,Overcast,60,2013-02-21 11:15:00
5:55 AM,19.4,15.8,86,29.84,1.2,ENE,13.8,-,N/A,,Overcast,60,2013-02-21 11:55:00
6:15 AM,19.4,15.8,86,29.83,1.2,ENE,13.8,-,N/A,,Overcast,60,2013-02-21 12:15:00
6:35 AM,19.4,15.8,86,29.83,1.2,ENE,15.0,-,N/A,,Overcast,60,2013-02-21 12:35:00
6:55 AM,19.4,15.8,86,29.83,1.5,NE,13.8,-,N/A,,Overcast,50,2013-02-21 12:55:00
7:15 AM,19.4,15.8,86,29.82,1.0,NE,16.1,-,N/A,,Overcast,40,2013-02-21 13:15:00
7:35 AM,19.4,15.8,86,29.84,0.8,NE,15.0,-,N/A,,Overcast,40,2013-02-21 13:35:00
7:55 AM,19.4,15.8,86,29.85,0.5,NE,15.0,-,N/A,,Overcast,40,2013-02-21 13:55:00
8:15 AM,19.4,15.8,86,29.85,0.5,NE,15.0,-,N/A,,Overcast,40,2013-02-21 14:15:00
8:35 AM,19.4,15.8,86,29.85,0.5,NE,17.3,-,N/A,,Overcast,40,2013-02-21 14:35:00
8:55 AM,19.4,15.8,86,29.83,0.5,NNE,17.3,-,N/A,,Overcast,30,2013-02-21 14:55:00
9:15 AM,17.6,15.8,93,29.82,0.8,NE,18.4,-,N/A,,Overcast,40,2013-02-21 15:15:00
9:35 AM,17.6,15.8,93,29.82,0.8,NE,17.3,23.0,N/A,,Overcast,40,2013-02-21 15:35:00
9:55 AM,17.6,15.8,93,29.82,0.2,NE,17.3,23.0,N/A,,Overcast,40,2013-02-21 15:55:00
10:15 AM,17.6,15.8,93,29.82,0.2,NE,19.6,-,N/A,,Overcast,40,2013-02-21 16:15:00
10:35 AM,17.6,15.8,93,29.80,0.2,NE,18.4,-,N/A,,Overcast,40,2013-02-21 16:35:00
11:15 AM,17.6,14.0,86,29.79,0.5,NNE,18.4,-,N/A,,Overcast,30,2013-02-21 17:15:00
11:35 AM,17.6,15.8,93,29.79,0.8,NE,18.4,-,N/A,,Overcast,40,2013-02-21 17:35:00
12:15 PM,19.4,15.8,86,29.79,0.5,NNE,17.3,-,N/A,,Overcast,30,2013-02-21 18:15:00
12:35 PM,19.4,15.8,86,29.81,0.5,NNE,12.7,-,N/A,,Overcast,30,2013-02-21 18:35:00
12:55 PM,19.4,15.8,86,29.81,0.8,NNE,11.5,-,N/A,,Overcast,30,2013-02-21 18:55:00
1:15 PM,19.4,15.8,86,29.80,0.8,NNE,13.8,-,N/A,,Overcast,20,2013-02-21 19:15:00
1:35 PM,19.4,15.8,86,29.79,0.8,North,13.8,-,N/A,,Overcast,10,2013-02-21 19:35:00
1:55 PM,19.4,15.8,86,29.78,1.2,North,16.1,-,N/A,,Overcast,10,2013-02-21 19:55:00
2:15 PM,19.4,14.0,80,29.77,1.8,NNE,16.1,-,N/A,,Overcast,20,2013-02-21 20:15:00
2:35 PM,19.4,14.0,80,29.77,9.0,North,15.0,-,N/A,,Overcast,10,2013-02-21 20:35:00
2:55 PM,19.4,14.0,80,29.76,9.0,NNE,15.0,-,N/A,,Overcast,20,2013-02-21 20:55:00
3:15 PM,19.4,14.0,80,29.76,8.0,North,18.4,-,N/A,,Overcast,10,2013-02-21 21:15:00
3:35 PM,19.4,15.8,86,29.77,4.0,North,13.8,-,N/A,,Overcast,360,2013-02-21 21:35:00
3:55 PM,19.4,14.0,80,29.77,1.5,North,13.8,-,N/A,,Overcast,350,2013-02-21 21:55:00
4:15 PM,19.4,15.8,86,29.77,0.8,NNW,10.4,-,N/A,,Overcast,340,2013-02-21 22:15:00
4:35 PM,19.4,15.8,86,29.78,1.0,NNW,12.7,-,N/A,,Overcast,340,2013-02-21 22:35:00
4:55 PM,19.4,15.8,86,29.78,1.0,North,13.8,-,N/A,,Overcast,350,2013-02-21 22:55:00
5:15 PM,19.4,15.8,86,29.78,1.2,NNW,13.8,-,N/A,,Overcast,340,2013-02-21 23:15:00
5:35 PM,19.4,15.8,86,29.78,2.0,NNW,15.0,19.6,N/A,,Overcast,340,2013-02-21 23:35:00
5:55 PM,19.4,15.8,86,29.79,8.0,NNW,12.7,-,N/A,,Overcast,340,2013-02-21 23:55:00
6:15 PM,17.6,15.8,93,29.80,9.0,NNW,13.8,-,N/A,,Overcast,340,2013-02-22 00:15:00
6:35 PM,17.6,14.0,86,29.80,5.0,NNW,13.8,-,N/A,,Overcast,340,2013-02-22 00:35:00
6:55 PM,17.6,14.0,86,29.81,3.0,NNW,18.4,-,N/A,,Overcast,340,2013-02-22 00:55:00
7:15 PM,17.6,14.0,86,29.82,3.0,NNW,15.0,-,N/A,,Overcast,340,2013-02-22 01:15:00
7:35 PM,17.6,12.2,79,29.82,9.0,NNW,17.3,-,N/A,,Overcast,340,2013-02-22 01:35:00
7:55 PM,17.6,12.2,79,29.83,10.0,NNW,16.1,-,N/A,,Overcast,340,2013-02-22 01:55:00
8:15 PM,15.8,12.2,86,29.83,10.0,NNW,15.0,-,N/A,,Mostly Cloudy,330,2013-02-22 02:15:00
8:35 PM,15.8,12.2,86,29.84,10.0,NNW,15.0,-,N/A,,Partly Cloudy,330,2013-02-22 02:35:00
8:55 PM,15.8,10.4,79,29.85,10.0,NW,11.5,-,N/A,,Clear,320,2013-02-22 02:55:00
9:15 PM,15.8,10.4,79,29.86,10.0,NW,11.5,-,N/A,,Clear,310,2013-02-22 03:15:00
9:35 PM,14.0,10.4,86,29.86,10.0,NW,11.5,-,N/A,,Mostly Cloudy,310,2013-02-22 03:35:00
9:55 PM,15.8,10.4,79,29.86,10.0,NW,15.0,-,N/A,,Overcast,320,2013-02-22 03:55:00
10:15 PM,15.8,12.2,86,29.88,10.0,NW,12.7,-,N/A,,Overcast,320,2013-02-22 04:15:00
10:35 PM,15.8,12.2,86,29.88,10.0,NW,13.8,-,N/A,,Overcast,320,2013-02-22 04:35:00
10:55 PM,15.8,10.4,79,29.88,10.0,NW,13.8,-,N/A,,Overcast,320,2013-02-22 04:55:00
11:15 PM,14.0,10.4,86,29.89,10.0,NW,12.7,-,N/A,,Scattered Clouds,310,2013-02-22 05:15:00
11:35 PM,15.8,12.2,86,29.90,10.0,WNW,11.5,-,N/A,,Mostly Cloudy,300,2013-02-22 05:35:00